Regional Weather Roundup
Issued by NWS Grand Forks, ND

Home | Current Version | Previous Version | Graphics & Text | Print | Product List | Glossary On
Versions: 1 2 3 4 5 6 7 8 9 10 11 12 13 14 15 16 17 18 19 20 21 22 23 24 25 26 27 28 29 30 31 32 33 34 35 36 37 38 39 40 41 42 43 44 45 46 47 48 49 50
350
ASUS43 KFGF 011031
RWRFGF
PRAIRIE TO PINES  WEATHER ROUNDUP
NATIONAL WEATHER SERVICE EASTERN NORTH DAKOTA/GRAND FORKS ND
500 AM CDT SUN MAY 01 2016

 **SATELLITE DATA USED TO AUGMENT SKY COVER AT AUTOMATED STATIONS**
 *****  WEATHER ACROSS EASTERN NORTH DAKOTA  *****

CITY           SKY/WX    TMP DP  RH WIND       PRES   REMARKS
GRAND FORKS    CLEAR     31  25  78 NW5       30.29R
GRAND FRKS AFB CLEAR     32  25  75 N8        30.29R
DEVILS LAKE    CLEAR     35  28  75 N5        30.31R
FARGO          CLEAR     33  26  75 CALM      30.27R
WAHPETON ARPT  SUNNY     37  28  70 NE6       30.26R
$$

 ***** WEATHER ACROSS CENTRAL AND WESTERN NORTH DAKOTA  *****

CITY           SKY/WX    TMP DP  RH WIND       PRES   REMARKS
BISMARCK       CLEAR     35  30  82 W5        30.31R
MINOT          CLEAR     35  25  66 W7        30.32R
JAMESTOWN      CLEAR     33  27  78 N6        30.26R
MINOT AFB      CLEAR     32  26  80 NW8       30.32R WCI  25
GARRISON         N/A     33  27  78 N6        30.31S
WILLISTON      CLEAR     33  28  81 N5        30.33S
DICKINSON      CLEAR     30  25  81 NW6       30.30R WCI  24
HETTINGER      CLEAR     26  22  84 W5        30.31R WCI  20
$$

 *****  OTHER AIRPORT OBSERVATIONS IN OUR AREA  *****

CITY           SKY/WX    TMP DP  RH WIND       PRES   REMARKS
WALHALLA       FAIR      32  32 100 CALM      30.32S
GRAFTON AIRPOR FAIR      36  28  75 N5        30.32R
VALLEY CITY AR FAIR      37  27  65 NE7       30.29R
CANDO          FAIR      28  25  86 N9        30.34R WCI  20
CAVALIER APRT  FAIR      36  28  75 NW6       30.31S
GWINNER        FAIR      34  30  86 N8        30.26R
ROLLA          FAIR      32  25  74 NW10      30.33S WCI  24
 ***** THE ABOVE OBSERVATIONS ARE NON NWS ARE NOT QUALITY
       CONTROLLED AND MAY MIS-REPORT RAIN FOR SNOW...
$$

  *****  WEATHER ACROSS NORTHERN MINNESOTA  *****

CITY           SKY/WX    TMP DP  RH WIND       PRES   REMARKS
FLAG ISLAND    CLEAR     41  34  75 CALM      30.29R
WARROAD        PTCLDY    34  28  80 CALM      30.30R
ROSEAU         CLEAR     34  27  75 CALM      30.29S
HALLOCK        CLEAR     36  27  69 N3        30.30S
THF RVR FALLS  CLEAR     37  25  60 NE3       30.30R
BAUDETTE       CLEAR     35  26  69 CALM      30.28R
WASKISH        CLEAR     32  28  86 CALM      30.28R
CROOKSTON      PTCLDY    37  27  65 E7        30.29S
STEPHEN NDAWN    N/A     30  25  80 NW3         N/A
GREENBUSH NDAW   N/A     30  28  93 SW1         N/A
$$
  *****  WEATHER ACROSS CENTRAL AND WEST MINNESOTA  *****

CITY           SKY/WX    TMP DP  RH WIND       PRES   REMARKS
FOSSTON        CLEAR     28  21  74 CALM      30.29R
BEMIDJI        CLEAR     25  23  93 CALM      30.27R
PARK RAPIDS    CLEAR     37  28  70 N5        30.25R
ELBOW LAKE     FAIR      38  30  74 E9        30.22S
WADENA         PTCLDY    34  27  75 N7        30.23S
DETROIT LAKES  CLEAR     37  32  81 NE5       30.27R
MOORHEAD       CLEAR     36  28  75 CALM      30.28R
FERGUS FALLS   CLEAR     37  28  70 NE5       30.24R
MORRIS MN      CLEAR     34  27  75 N7        30.20S
STAPLES        CLEAR     34  27  75 N6        30.23R
$$
  *****  WEATHER ELSEWHERE ACROSS MINNESOTA  *****

CITY           SKY/WX    TMP DP  RH WIND       PRES   REMARKS
DULUTH         CLEAR     34  27  75 N3        30.22R
INTRNTL FALLS  CLEAR     32  27  81 E5        30.28R
ELY            CLEAR     27  25  93 CALM      30.26S
CLOQUET        CLOUDY    36  28  75 N6        30.21S
WHEATON        CLEAR     36  30  80 N5        30.25S
BRAINERD       CLEAR     33  27  78 NE5       30.22S
HIBBING        CLEAR     23  22  96 NW5       30.25R WCI  17
ALEXANDRIA     CLEAR     36  27  69 NE9       30.21R
SAINT CLOUD    CLOUDY    38  30  73 N5        30.18R
MINNEAPOLIS    CLOUDY    43  32  65 N9        30.13S
$$

  *****  WEATHER ACROSS SOUTH DAKOTA  *****

CITY           SKY/WX    TMP DP  RH WIND       PRES   REMARKS
SIOUX FALLS    LGT RAIN  42  39  89 NE14      30.11R
BROOKINGS      PTCLDY    38  30  73 N6        30.14R
WATERTOWN      CLEAR     35  28  75 NE12      30.17R
HURON          MOCLDY    38  31  76 N10       30.18R
SISSETON         N/A     31  27  85 N6        30.22S
ABERDEEN       CLEAR     32  28  85 N7        30.23R
MITCHELL       MOCLDY    41  37  86 N8        30.16R
PIERRE         PTCLDY    34  30  85 NE9       30.21R
MOBRIDGE       CLEAR     38  30  73 N9        30.23R
RAPID CITY     PTCLDY    34  29  82 N12       30.26R
$$

  *****  SOME WEATHER IN NEARBY STATES *****

CITY           SKY/WX    TMP DP  RH WIND       PRES   REMARKS
GLASGOW MT     PTCLDY    37  29  72 E5        30.33R
GREAT FALLS MT CLEAR     35  30  82 S3        30.32S
CHEYENNE WY    CLOUDY    31  28  89 N15G25    30.21S WCI  20
SCOTTSBLUFF NE CLOUDY    38  34  85 NW7       30.24R
OMAHA NE       DRIZZLE   45  43  93 NE12      29.94R
DES MOINES IA  LGT RAIN  45  42  89 E7        29.96R FOG
DAVENPORT IA   CLOUDY    46  44  93 NE10      29.94R FOG
CHICAGO IL     CLOUDY    44  43  96 NE14      29.91F FOG
EAU CLAIRE WI  MOCLDY    44  31  60 NE10      30.11R
LA CROSSE WI   CLOUDY    46  37  71 NE7       30.06S
$$

  *****  SOME NATIONAL WEATHER *****

CITY           SKY/WX    TMP DP  RH WIND       PRES   REMARKS
LA GUARDIA NY  CLOUDY    50  36  58 E5        30.19S
RALEIGH NC     CLOUDY    59  55  88 SE5       30.10S
ATLANTA GA     PTCLDY    67  64  90 CALM      30.00R FOG
NEW ORLEANS LA CLOUDY    73  70  90 SE3       29.86S
OKLAHOMA CITY  PTCLDY    48  40  73 NW14      30.02R
ALBUQUERQUE NM CLOUDY    43  32  65 E35G45    29.93R
SALT LAKE CITY CLOUDY    50  23  34 E8G18     30.02R
LOS ANGELES CA MOCLDY    57  50  77 E3        29.85S
BOISE ID       CLEAR     44  36  73 CALM      30.10R
SEATTLE WA     CLEAR     52  41  66 N7        30.26F
$$

*** WEATHER ACROSS MANITOBA...SASKATCHEWAN AND ONTARIO ***
                ***ONTARIO***

CITY           SKY/WX    TMP DP  RH WIND       PRES   REMARKS
GERALDTON      MOCLDY    36  32  87 NE7       30.30R
THUNDER BAY    PTCLDY    28  27  93 SW5       30.28R WCI  23
SIOUX LOOKOUT  PTCLDY    27  25  93 CALM      30.31R
TORONTO        LGT RAIN  45  43  93 E10       29.99F
BIG TROUT LK   CLEAR     27  25  93 E2        30.30F
PICKLE LAKE    NOT AVBL
DRYDEN         CLEAR     34  30  86 E5        30.30R
KENORA         CLEAR     36  27  69 N6        30.30R
$$
                *** MANITOBA***

CITY           SKY/WX    TMP DP  RH WIND       PRES   REMARKS
BRANDON        CLEAR     28  21  74 NW2       30.34R
DAUPHIN        CLEAR     32  25  74 W8        30.32F WCI  25
ISLAND LAKE    NOT AVBL
PILOT MOUND      N/A     34  27  75 NW5         N/A
THE PAS        CLEAR     45  28  53 S8        30.23F
THOMPSON       PTCLDY    30  25  80 CALM      30.20F
WINNIPEG       CLEAR     36  28  75 CALM      30.31S
LYNN LAKE      MOCLDY    43  27  52 S7        30.09F
CHURCHILL      MOCLDY    30  27  86 SE17      30.18F WCI  18
$$
                ***SASKATCHEWAN***

CITY           SKY/WX    TMP DP  RH WIND       PRES   REMARKS
ESTEVAN        NOT AVBL
KINDERSLEY     CLEAR     39  32  75 S6        30.28S
LLOYDMINSTER   CLEAR     41  34  75 SW9       30.22F
PRINCE ALBERT  PTCLDY    45  30  57 SW5       30.23F
REGINA         CLEAR     34  23  64 SE9       30.33S
YORKTON        CLEAR     39  30  70 S6        30.33S
N. BATTLEFORD  CLEAR     41  34  75 S5        30.26F
LA RONGE       CLOUDY    52  30  43 SW6       30.14F
SASKATOON      CLEAR     43  27  52 S6        30.27F
SWIFT CURRENT  CLEAR     39  32  75 SW10      30.29S
$$
NOTE: THESE ARE AUTOMATED STATIONS WITH LIMITED QUALITY CONTROL
      "FAIR" INDICATES FEW OR NO CLOUDS BELOW 12,000 FEET WITH NO
      SIGNIFICANT WEATHER AND/OR OBSTRUCTIONS TO VISIBILITY.
      SKY/WX - SKY CONDITION AND SIGNIFICANT WEATHER.
      TMP - AIR TEMPERATURE.    DP   - DEWPOINT TEMPERATURE.
      RH  - RELATIVE HUMIDITY.  PRES - PRESSURE.
      HX  - HEAT INDEX.         WCI  - WIND CHILL INDEX.
$




USA.gov is the U.S. government's official web portal to all federal, state and local government web resources and services.